This is the latest recevied weather packets stored in our database for station/object F8KHU-13. If no packets are shown the sender has not sent any weather packets the latest 1 day(s).
| Time | Temp. | Humidity | Pressure | Rain* | Wind** | Luminosity | Snow |
|---|---|---|---|---|---|---|---|
| 1778002836 | 12.22° C | 34% | 1010 hPa | 0 mm | 0.45 m/s, 138° | 0 W/m² | - |
| 1778002816 | 12.22° C | 34% | 1010 hPa | 0 mm | 1.79 m/s, 140° | 0 W/m² | - |
| 1778002796 | 12.22° C | 34% | 1010 hPa | 0 mm | 0.45 m/s, 141° | 0 W/m² | - |
| 1778001936 | 12.22° C | 34% | 1010.1 hPa | 0.51 mm | 0.45 m/s, 144° | 0 W/m² | - |
| 1778001916 | 12.22° C | 34% | 1010.1 hPa | 0.51 mm | 0 m/s | 0 W/m² | - |
| 1778001896 | 12.22° C | 34% | 1010.1 hPa | 0.51 mm | 0.45 m/s, 144° | 0 W/m² | - |
| 1778001036 | 12.22° C | 34% | 1010 hPa | 0.51 mm | 0.89 m/s, 137° | 0 W/m² | - |
| 1778001016 | 12.22° C | 34% | 1010 hPa | 0.51 mm | 0 m/s | 0 W/m² | - |
| 1778000996 | 12.22° C | 34% | 1010 hPa | 0.51 mm | 0 m/s | 0 W/m² | - |
| 1778000136 | 12.22° C | 34% | 1010.1 hPa | 0.51 mm | 0.89 m/s, 134° | 0 W/m² | - |
| 1778000117 | 12.22° C | 34% | 1010.1 hPa | 0.51 mm | 0 m/s | 0 W/m² | - |
| 1778000096 | 12.22° C | 33% | 1010.1 hPa | 0.51 mm | 0.89 m/s, 133° | 0 W/m² | - |
| 1777999236 | 12.22° C | 33% | 1010.2 hPa | 0.51 mm | 0.45 m/s, 150° | 0 W/m² | - |
| 1777999216 | 12.78° C | 33% | 1010.2 hPa | 0.51 mm | 0.45 m/s, 149° | 0 W/m² | - |
| 1777999197 | 12.78° C | 33% | 1010.2 hPa | 0.51 mm | 0.45 m/s, 152° | 0 W/m² | - |
| 1777998337 | 12.78° C | 33% | 1010.2 hPa | 0 mm | 0.89 m/s, 140° | 0 W/m² | - |
| 1777998325 | 12.78° C | 33% | 1010.2 hPa | 0 mm | 1.34 m/s, 140° | 0 W/m² | - |
| 1777998297 | 12.78° C | 33% | 1010.2 hPa | 0 mm | 0.45 m/s, 140° | 0 W/m² | - |
| 1777997437 | 12.78° C | 33% | 1010.2 hPa | 0 mm | 0 m/s | 0 W/m² | - |
| 1777997417 | 12.78° C | 33% | 1010.2 hPa | 0 mm | 0.45 m/s, 138° | 0 W/m² | - |
| 1777997397 | 12.78° C | 33% | 1010.2 hPa | 0 mm | 0.45 m/s, 139° | 0 W/m² | - |
| 1777996539 | 12.78° C | 33% | 1010.3 hPa | 0 mm | 0.45 m/s, 150° | 0 W/m² | - |
| 1777996517 | 12.78° C | 33% | 1010.3 hPa | 0 mm | 0 m/s | 0 W/m² | - |
| 1777996497 | 12.78° C | 32% | 1010.3 hPa | 0 mm | 0.45 m/s, 151° | 0 W/m² | - |
| 1777995637 | 12.78° C | 33% | 1010.3 hPa | 0 mm | 1.34 m/s, 144° | 0 W/m² | - |
* Rain latest hour (hover to see other rain measurements)
** Current wind speed in m/s (hover to see current wind gust speed)